User: anonymous   Login
Location: Katowice
(50.2611°N, 19.0242°E)
Time: 04:32:40
(UTC+02:00)
Language:

Explorer 11/Cluster Stage 4 - Orbit

View from above orbital plane
View from above orbital plane
View from above satellite
View from above satellite

Ground track
Ground track

The orbit data is extracted from the following two-line orbital elements,

1   107U 61013A   19203.22432679  .00000405  00000-0  33285-4 0  9993
2   107  28.7896 251.9109 0547286 309.4580  45.8784 14.08805590919025
Epoch (UTC): 22 July 2019 05:23:01
Eccentricity: 0.0547286
inclination: 28.7896°
perigee height: 467 km
apogee height: 1260 km
right ascension of ascending node: 251.9109°
argument of perigee: 309.4580°
revolutions per day: 14.08805590
mean anomaly at epoch: 45.8784°
orbit number at epoch: 91902

The dashed part of the orbit path shows where the satellite is in the earth's shadow,  

DLR